TimeEDT,TemperatureF,Dew PointF,Humidity,Sea Level PressureIn,VisibilityMPH,Wind Direction,Wind SpeedMPH,Gust SpeedMPH,PrecipitationIn,Events,Conditions,WindDirDegrees,DateUTC
12:53 AM,37.9,36.0,93,30.17,10.0,Calm,Calm,-,N/A,,Clear,0,2013-09-14 04:53:00
1:53 AM,37.9,36.0,93,30.17,10.0,Calm,Calm,-,N/A,,Clear,0,2013-09-14 05:53:00
2:53 AM,37.0,34.0,89,30.17,5.0,Calm,Calm,-,N/A,,Clear,0,2013-09-14 06:53:00
3:53 AM,39.9,37.0,89,30.17,10.0,Calm,Calm,-,N/A,,Clear,0,2013-09-14 07:53:00
4:53 AM,39.0,36.0,89,30.18,10.0,Calm,Calm,-,N/A,,Clear,0,2013-09-14 08:53:00
5:13 AM,37.4,35.6,93,30.17,2.5,Calm,Calm,-,N/A,,Clear,0,2013-09-14 09:13:00
5:20 AM,39.2,35.6,87,30.16,10.0,Calm,Calm,-,N/A,,Clear,0,2013-09-14 09:20:00
5:53 AM,39.0,36.0,89,30.18,10.0,Calm,Calm,-,N/A,,Clear,0,2013-09-14 09:53:00
6:53 AM,37.0,35.1,93,30.19,10.0,Calm,Calm,-,N/A,,Clear,0,2013-09-14 10:53:00
7:53 AM,39.0,37.0,93,30.20,10.0,Calm,Calm,-,N/A,,Clear,0,2013-09-14 11:53:00
8:53 AM,46.9,42.1,83,30.20,10.0,Calm,Calm,-,N/A,,Clear,0,2013-09-14 12:53:00
9:53 AM,55.0,43.0,64,30.21,10.0,West,3.5,-,N/A,,Clear,260,2013-09-14 13:53:00
10:53 AM,57.9,39.9,51,30.21,10.0,Variable,3.5,-,N/A,,Clear,0,2013-09-14 14:53:00
11:53 AM,63.0,39.9,43,30.19,10.0,Variable,4.6,-,N/A,,Clear,0,2013-09-14 15:53:00
12:53 PM,63.0,37.9,40,30.18,10.0,SSW,4.6,-,N/A,,Clear,200,2013-09-14 16:53:00
1:53 PM,66.0,39.0,37,30.16,10.0,WSW,9.2,-,N/A,,Clear,250,2013-09-14 17:53:00
2:53 PM,68.0,39.9,36,30.14,10.0,SW,6.9,-,N/A,,Clear,230,2013-09-14 18:53:00
3:53 PM,68.0,39.9,36,30.12,10.0,West,4.6,-,N/A,,Clear,270,2013-09-14 19:53:00
4:53 PM,69.1,39.0,33,30.11,10.0,WSW,6.9,-,N/A,,Clear,250,2013-09-14 20:53:00
5:53 PM,68.0,37.9,33,30.09,10.0,WSW,8.1,-,N/A,,Clear,250,2013-09-14 21:53:00
6:53 PM,66.0,37.9,36,30.09,10.0,WSW,5.8,-,N/A,,Clear,250,2013-09-14 22:53:00
7:53 PM,62.1,39.9,44,30.11,10.0,SW,3.5,-,N/A,,Clear,230,2013-09-14 23:53:00
8:53 PM,55.9,42.1,60,30.11,10.0,South,4.6,-,N/A,,Clear,190,2013-09-15 00:53:00
9:53 PM,57.9,43.0,58,30.10,10.0,South,6.9,-,N/A,,Clear,190,2013-09-15 01:53:00
10:53 PM,55.9,43.0,62,30.10,10.0,South,5.8,-,N/A,,Clear,190,2013-09-15 02:53:00
11:53 PM,55.0,43.0,64,30.10,10.0,South,3.5,-,N/A,,Clear,190,2013-09-15 03:53:00